Regional Weather Roundup
Issued by NWS

Home | Current Version | Previous Version | Graphics & Text | Print | Product List | Glossary On
Versions: 1 2 3 4 5 6 7 8 9 10 11 12 13 14 15 16 17 18 19 20 21 22 23 24 25 26 27 28 29 30 31 32 33 34 35 36 37 38 39 40 41 42 43 44 45 46 47 48 49 50
000
ASUS43 KDMX 061607
RWRIA

WEATHER ROUNDUP FOR IOWA
NATIONAL WEATHER SERVICE DES MOINES IA
1000 AM CST FRI MAR 06 2015

NOTE: "FAIR" INDICATES FEW OR NO CLOUDS BELOW 12,000 FEET WITH NO
SIGNIFICANT WEATHER AND/OR OBSTRUCTIONS TO VISIBILITY.

* - THESE STATIONS ARE NOT NWS STATIONS...THUS NOT UNDER NWS
QUALITY CONTROL.  THEY ALSO DO NOT REPORT WEATHER SUCH
AS PRECIPITATION OR FOG.

IAZ001>003-012>014-020>022-031>034-043>046-061700-
   NORTHWEST IOWA

CITY           SKY/WX    TMP DP  RH WIND       PRES   REMARKS
CARROLL *      SUNNY     36  19  51 W13       30.16S WCI  27
CHEROKEE *     SUNNY     36  19  51 W7        30.14S WCI  30
DENISON *      SUNNY     32  18  55 SW9       30.16R WCI  24
LE MARS *      SUNNY     37  19  48 SW7       30.14F WCI  32
ORANGE CITY *  SUNNY     37  18  44 W7        30.11F WCI  32
SHELDON *      SUNNY     34  19  55 SW7       30.10F WCI  28
SIOUX CITY     SUNNY     38  18  44 CALM      30.16F
SPENCER        SUNNY     35  19  52 W8        30.11F WCI  29
STORM LAKE *   SUNNY     34  19  55 W13       30.13S WCI  25
$$

IAZ055>058-069>071-079>083-090>094-061700-
   SOUTHWEST IOWA

CITY           SKY/WX    TMP DP  RH WIND       PRES   REMARKS
ATLANTIC *     SUNNY     36  19  51 SW8       30.20S WCI  29
AUDUBON *      SUNNY     34  19  55 SW8       30.18S WCI  27
CLARINDA *     SUNNY     41  19  42 SW13      30.26S
COUNCIL BLFS * SUNNY     36  18  48 SW10      30.20R WCI  28
CRESTON *      SUNNY     36  19  51 W14G20    30.20S WCI  27
HARLAN  *      SUNNY     36  19  51 SW6       30.23R WCI  31
LAMONI         SUNNY     36  21  54 W10       30.22S WCI  28
RED OAK *      SUNNY     39  19  45 SW13      30.23S WCI  32
SHENANDOAH *   SUNNY     41  19  42 SW13      30.26R
$$

IAZ047>049-059>061-072>074-084-061700-
   CENTRAL IOWA

CITY           SKY/WX    TMP DP  RH WIND       PRES   REMARKS
AMES           SUNNY     29  18  63 SW10      30.18F WCI  20
ANKENY *       SUNNY     32  18  55 SW10      30.20S WCI  24
CHARITON *     SUNNY     32  19  59 SW12G21   30.21S WCI  23
DES MOINES     MOSUNNY   34  18  52 W14       30.20R WCI  25
GRINNELL*      SUNNY     28  18  64 SW15      30.19F WCI  17
KNOXVILLE *    SUNNY     32  18  55 SW12G20   30.19F WCI  23
MARSHALLTOWN   SUNNY     26  16  65 SW13      30.17F WCI  15
PELLA *        SUNNY     32  21  64 SW12      30.22F WCI  23
PERRY *          N/A     34  21  60 W8        30.18S WCI  27
$$

IAZ004>006-015-016-023>025-035-036-061700-
   NORTH CENTRAL IOWA

CITY           SKY/WX    TMP DP  RH WIND       PRES   REMARKS
ALGONA *       SUNNY     30  18  59 SW10      30.12S WCI  21
CLARION *      SUNNY     28  21  74 SW12      30.13F WCI  18
ESTHERVILLE    SUNNY     31  19  61 W12       30.09S WCI  22
FORT DODGE *   SUNNY     28  19  69 SW9       30.16R WCI  20
MASON CITY     SUNNY     24  16  71 SW10      30.14S WCI  14
FOREST CITY *  SUNNY     28  16  59 SW10      30.12S WCI  19
IOWA FALLS *     N/A     27  18  69 SW12      30.16F HAZE    WCI  16
$$

IAZ007>011-017>019-026>030-037>042-050>054-066-061700-
   NORTHEAST IOWA

CITY           SKY/WX    TMP DP  RH WIND       PRES   REMARKS
CEDAR RAPIDS   SUNNY     22  14  71 S14       30.22F WCI   9
CHARLES CITY * SUNNY     19  12  73 S13       30.15F WCI   7
CLINTON *      SUNNY     18   9  68 S12       30.30S WCI   5
DECORAH *      SUNNY     19   9  63 S10G18    30.15F WCI   8
DUBUQUE        SUNNY     15   6  67 S18       30.21F WCI  -2
MONTICELLO *   SUNNY     18  10  73 S9        30.24F WCI   6
OELWEIN *      SUNNY     19  12  73 S15       30.19S WCI   5
WATERLOO       SUNNY     22  14  71 S13       30.18F WCI  10
$$

IAZ064-065-067-068-078-061700-
   EAST CENTRAL IOWA

CITY           SKY/WX    TMP DP  RH WIND       PRES   REMARKS
DAVENPORT      SUNNY     22   9  57 S21G29    30.27F WCI   6
IOWA CITY      SUNNY     23  12  62 S13       30.27F WCI  11
MT. PLEASANT *   N/A     25  14  63 S17       30.27S WCI  11
MUSCATINE *    SUNNY     25  12  58 S15G21    30.29F WCI  12
QUAD CITIES    MOSUNNY   23   9  55 S9G18     30.28F WCI  13
$$

IAZ062-063-075>077-085>089-095>099-061700-
   SOUTHEAST IOWA

CITY           SKY/WX    TMP DP  RH WIND       PRES   REMARKS
BURLINGTON     SUNNY     24  14  65 S16       30.28F WCI  11
FAIRFIELD *    MIX PCPN  28  16  59 S18       30.24F WCI  16
FORT MADISON * SUNNY     27  14  59 S17G23    30.28F WCI  14
KEOKUK *       SUNNY     27  14  59 S14G29    30.28F WCI  15
OSKALOOSA *      N/A     32  19  59 SW18      30.22F WCI  20
CENTERVILLE *  SUNNY     32  19  59 SW16G24   30.23F WCI  21
OTTUMWA        MOSUNNY   32  18  56 SW15      30.22F WCI  22
WASHINGTON *   SUNNY     27  18  69 SW17      30.24F WCI  14
$$

ABBREVIATIONS USED IN REMARKS
   TC - TEMPERATURES IN CELSIUS
  WCI - WIND CHILL INDEX
   HX - HEAT INDEX
  VSB - VISIBILITY
$$



USA.gov is the U.S. government's official web portal to all federal, state and local government web resources and services.